Location: Aalen
(48.8330°N, 10.1000°E)
Time: 05:50:27
(UTC+02:00)

COSMOS 2251 DEB - Pass Details

Date: 16 January 2022
Orbit: 755 x 791 km, 74.0° (Epoch: 21 May)

Event Time Altitude Azimuth Distance (km) Brightness Sun altitude
Rises 20:45:44 0° 255° (WSW) 3,224 ? -37.7°
Reaches altitude 10° 20:49:00 10° 276° (W) 2,296 ? -38.3°
Maximum altitude 20:52:15 16° 315° (NW) 1,885 ? -38.8°
Enters shadow 20:52:33 16° 319° (NW) 1,889 ? -38.8°
